RH
66 50 43 31 28 26 25 22 18 17 17 15 14 14 13 11 10 10 10 11 15 21 26 30 31 39 50 67 60 55 58 64 64 63 79 92 98 94 86 85 86 87 86
59 44 30 19 12 12 12 12 12 12 12 12 13 12 12 11 11 10 10 10 10 11 11 12 15 20 29 43 62 70 79 70 68 78 81 78 96 93 90 98 86 85 85
32 19 14 12 12 11 10 11 11 11 11 12 12 11 12 12 14 15 16 16 16 16 15 15 12 10 11 15 32 81 100 100 100 99 96 99 100 97 99 100 90 93 85
15 13 13 11 10 11 13 14 14 15 16 19 20 20 20 19 18 18 18 18 18 17 17 17 18 16 12 11 12 23 99 100 100 100 100 96 99 100 100 99 86 90 98
13 11 12 14 16 18 21 24 25 22 20 19 18 16 15 14 15 15 15 15 15 15 16 17 17 16 14 13 13 12 19 28 100 94 100 100 85 100 100 100 100 93 83
13 14 21 28 28 26 24 21 19 17 16 20 23 28 30 32 31 32 31 28 27 24 24 21 19 16 14 12 12 14 14 11 16 49 100 100 100 100 84 100 100 94 100
25 30 29 25 22 20 18 21 29 33 32 32 32 34 34 34 37 35 39 39 36 36 33 30 26 22 20 17 12 10 10 12 12 14 45 100 100 100 95 100 100 100 100
30 26 22 20 21 30 34 33 34 33 38 41 39 41 49 53 56 51 50 47 44 42 40 40 35 30 22 17 16 15 13 9 12 15 18 22 98 100 98 95 66 95 99
24 22 25 35 36 34 37 39 47 51 46 46 51 52 51 49 48 50 50 48 45 40 36 39 36 28 25 22 16 15 16 13 13 13 18 22 20 40 59 68 76 74 74
26 36 37 36 38 43 46 51 54 52 55 54 50 49 53 66 54 52 49 50 48 45 36 34 34 32 26 24 18 14 14 16 15 17 20 30 34 72 99 100 100 100 90
37 36 42 47 47 50 56 53 60 62 54 63 68 69 83 86 89 78 72 55 47 51 46 49 42 32 27 27 26 19 14 16 16 16 23 28 70 90 51 53 88 100 100
41 48 48 54 59 73 84 88 90 89 80 70 78 77 72 67 89 88 78 70 62 50 45 42 40 43 33 26 25 23 23 17 19 20 21 22 27 40 46 53 76 76 100
50 54 60 92 92 95 79 76 74 83 80 83 73 74 70 85 74 77 71 81 79 72 50 52 51 53 45 33 26 27 24 24 21 20 24 24 36 85 98 76 97 100 100
88 100 99 74 59 61 68 80 77 83 80 80 81 81 86 98 84 76 82 84 85 84 82 74 58 47 41 38 36 31 26 27 27 25 20 22 25 34 51 62 47 50 83
67 53 57 71 79 85 79 78 85 87 85 90 95 92 94 95 81 87 90 85 80 73 78 75 63 57 49 44 35 33 32 26 27 26 28 26 23 21 20 22 24 38 49
78 74 86 98 100 100 100 100 100 99 82 73 73 76 75 82 80 79 86 82 82 84 85 83 71 66 56 44 38 32 31 26 27 27 26 26 29 28 26 24 22 21 21
97 100 100 100 100 100 100 100 77 62 62 60 62 58 56 58 61 57 61 79 79 84 88 83 75 70 69 53 41 36 32 28 23 26 27 28 26 27 29 29 27 27 26
76 89 99 100 100 100 89 79 81 76 64 67 62 66 75 80 80 78 85 85 100 85 86 98 87 71 58 51 38 32 31 29 25 23 22 23 24 24 26 27 31 30 28
100 100 88 86 72 67 58 59 63 68 69 66 67 71 68 72 83 80 74 71 76 91 85 89 86 62 52 38 30 28 28 25 23 24 22 20 20 19 20 23 25 26 28
67 63 55 53 52 54 54 56 66 68 69 69 62 61 58 56 55 59 55 60 66 62 61 60 60 65 52 36 29 26 23 22 23 22 24 24 20 20 19 18 20 22 23
45 49 52 52 54 56 54 53 56 58 54 50 46 48 47 50 52 49 46 42 41 49 51 45 48 44 38 27 22 24 23 21 20 21 22 22 22 22 20 18 16 16 16
54 52 55 59 64 62 62 66 64 57 54 52 50 52 53 53 48 44 38 37 36 38 38 33 35 34 33 27 22 22 20 20 21 20 23 21 20 18 15 14 14 14 13
59 52 59 66 65 62 57 54 53 51 45 43 42 41 44 42 42 39 35 28 28 27 24 28 33 25 21 18 21 21 20 21 19 18 20 24 16 15 13 13 12 11 10
69 59 57 74 74 77 71 69 60 55 47 37 32 30 27 27 28 28 23 21 21 20 19 23 24 22 19 18 20 20 18 19 18 21 22 23 16 14 12 13 12 11 10
65 78 89 91 80 62 52 48 39 37 27 24 22 22 20 20 20 16 18 18 16 17 21 22 19 16 17 17 18 18 16 19 20 19 14 15 13 13 14 15 13 10 8
88 99 94 76 69 58 47 35 27 22 20 18 18 17 17 18 15 12 12 13 15 17 18 17 14 14 16 16 18 16 16 20 19 18 12 12 12 12 15 17 14 10 8
Wind_Speed
72 74 75 76 76 76 76 77 77 78 80 79 78 79 78 77 76 76 76 76 77 79 80 80 81 81 77 72 71 71 71 74 76 75 73 70 70 69 67 66 64 62 60
75 77 77 76 75 77 79 81 82 81 81 81 81 81 81 81 81 80 80 80 81 80 82 83 82 82 82 80 74 60 69 66 70 75 79 82 80 78 76 74 72 70 68
77 76 75 77 79 81 82 82 80 80 79 77 78 78 76 76 76 76 76 78 78 80 81 83 84 84 83 81 79 65 59 65 55 69 77 75 76 81 80 77 79 78 76
76 77 79 81 83 81 77 73 72 72 71 70 69 71 71 74 75 75 76 77 78 79 81 82 83 84 84 83 83 79 78 67 46 59 52 68 78 82 81 85 83 78 77
79 82 82 77 70 66 65 65 66 68 69 69 70 68 66 64 64 63 63 64 64 66 69 73 75 79 81 82 84 87 90 91 91 84 76 67 73 83 86 87 81 79 80
77 73 65 63 64 65 66 66 64 62 56 50 47 45 45 44 44 44 45 45 46 47 50 54 57 60 63 68 76 83 91 95 95 95 97 87 78 83 77 80 84 80 80
60 62 66 66 65 63 57 49 44 43 42 40 36 34 34 32 33 33 32 35 37 38 42 45 48 50 53 56 61 65 77 85 94 95 99 105 100 96 92 100 91 89 86
64 65 65 61 50 42 41 38 35 32 30 29 28 24 24 27 31 32 33 36 37 39 41 44 47 47 49 48 51 56 61 64 81 96 102 102 113 117 114 117 104 104 103
65 60 47 41 40 34 30 27 23 23 24 24 25 25 25 26 27 29 31 34 37 39 39 41 46 47 47 48 46 47 53 59 62 77 98 108 113 115 115 109 107 105 98
47 40 39 33 28 24 22 22 21 22 21 21 23 24 26 29 30 34 33 36 37 39 38 40 42 47 48 49 49 44 45 49 58 68 77 91 108 107 103 105 107 102 103
38 31 25 24 23 22 20 20 20 21 24 26 27 27 28 31 35 40 43 43 41 39 39 42 45 45 45 45 47 49 46 44 49 61 75 84 99 112 116 115 111 99 103
23 21 22 18 18 19 18 21 24 26 31 32 35 37 38 38 37 42 47 49 51 49 43 43 44 46 48 46 47 47 49 49 46 49 64 74 84 92 102 112 119 117 110
18 16 17 20 22 26 29 30 33 35 37 39 41 42 42 44 44 46 50 51 55 54 51 48 49 49 48 47 47 49 50 51 52 50 51 65 79 91 100 104 112 111 110
13 18 22 26 30 34 36 38 42 44 43 44 46 46 50 51 53 52 52 52 54 57 58 55 54 52 52 49 47 50 51 53 56 58 57 56 62 79 92 96 97 110 121
26 28 32 35 38 40 42 44 47 48 49 50 52 55 56 56 57 57 58 58 59 63 65 64 61 58 58 57 51 52 55 56 59 61 62 63 64 66 70 78 87 94 104
30 34 36 38 42 46 48 50 51 54 55 54 58 60 62 64 66 65 64 64 64 66 65 68 67 66 66 63 59 54 56 59 60 63 66 68 68 70 71 73 75 80 87
37 41 44 47 52 54 56 57 61 63 63 64 65 68 69 70 71 70 70 71 71 68 71 71 70 69 69 69 66 62 61 62 63 64 67 69 71 74 76 77 78 80 82
47 51 53 56 59 62 65 67 69 69 69 72 73 76 77 78 78 77 77 75 76 75 70 71 75 72 72 72 71 65 65 67 68 67 67 70 73 76 78 80 83 84 86
58 58 60 63 66 68 72 74 75 77 79 80 82 82 83 85 86 86 82 81 79 77 76 77 79 76 78 78 74 70 68 69 70 71 71 72 73 75 79 83 86 88 90
61 65 69 72 73 76 79 81 83 85 86 88 87 88 86 87 86 86 85 85 83 81 80 79 77 80 81 82 76 72 70 70 70 72 73 75 75 77 79 81 86 89 91
67 71 75 77 78 80 81 82 84 85 86 88 89 91 93 93 91 89 87 86 86 86 84 81 80 80 84 84 79 75 74 74 72 73 73 74 74 78 81 83 86 89 91
71 76 76 79 84 86 86 85 85 88 90 90 89 89 90 91 91 89 90 88 88 88 87 84 85 85 86 83 76 75 74 72 76 74 72 76 75 79 81 84 85 88 89
76 80 82 86 87 88 88 87 88 89 91 92 94 96 97 97 94 94 92 90 90 90 89 86 87 88 84 78 74 73 72 72 74 74 72 77 76 79 80 83 84 85 85
81 86 89 93 95 96 93 92 92 92 94 94 94 95 96 97 96 95 93 92 91 91 88 87 87 86 82 75 72 71 72 71 72 73 73 76 79 80 80 82 82 83 83
89 91 96 100 98 95 94 94 95 96 98 98 98 99 96 95 94 91 89 90 90 86 86 86 84 79 75 72 70 70 69 69 71 74 75 74 77 79 80 84 86 87 87
94 98 99 99 98 98 99 97 98 100 100 100 97 95 93 93 93 89 83 83 82 82 82 82 79 74 71 70 68 67 68 68 70 75 75 75 75 74 76 84 89 91 91
Wind_Direction
294 294 293 292 290 287 285 284 283 283 284 284 283 282 281 279 277 275 273 272 270 267 265 263 262 260 259 260 262 263 265 265 263 262 261 261 261 260 259 258 257 258 259
293 292 290 289 288 286 284 285 285 284 283 282 281 279 279 278 277 276 274 273 271 270 267 265 262 260 259 259 259 267 275 271 272 266 262 260 260 260 258 257 256 257 258
292 292 289 288 289 288 288 287 285 284 284 283 281 281 280 279 277 275 273 272 271 269 267 267 266 261 258 256 254 243 254 264 272 270 260 258 258 257 257 256 256 255 254
292 291 291 290 290 290 289 290 288 286 286 285 283 283 282 279 277 276 275 274 273 272 270 267 267 265 261 255 251 246 238 230 229 243 254 258 258 257 258 257 254 254 255
292 293 294 296 295 293 291 290 290 289 288 287 286 285 284 283 281 281 279 277 275 274 272 270 268 265 263 258 253 247 242 238 238 242 249 258 254 251 252 254 254 254 254
296 297 297 297 296 295 294 293 292 292 292 292 292 291 290 288 285 283 281 280 280 279 277 275 274 271 269 264 256 251 246 243 239 239 242 245 247 241 243 250 255 252 254
298 299 298 297 296 296 297 299 298 296 295 293 292 289 285 289 291 294 297 296 293 292 289 287 283 279 275 270 265 258 251 246 243 240 237 238 239 245 248 251 250 252 253
300 299 299 299 301 301 299 297 296 294 296 295 295 296 308 308 306 304 300 297 296 292 289 288 286 286 282 275 270 266 261 250 242 238 237 238 238 243 248 254 251 250 253
300 300 302 301 300 299 297 297 301 302 305 309 314 317 314 307 307 306 304 299 297 293 290 288 289 285 284 283 275 268 263 259 249 241 236 238 241 242 246 248 249 252 255
300 300 301 301 301 300 301 304 303 307 315 319 318 319 319 320 317 310 308 308 307 305 300 296 290 286 285 283 282 275 266 258 252 245 242 239 243 246 243 245 250 251 252
300 299 300 301 300 305 311 314 318 317 317 320 320 319 318 318 318 318 317 311 310 313 310 311 301 294 287 284 282 280 275 266 256 249 243 244 238 239 244 245 248 246 248
303 303 301 303 306 311 318 324 318 316 315 316 316 316 314 311 309 311 312 313 314 313 312 308 307 304 297 289 284 278 275 270 262 257 251 249 246 248 247 245 246 246 249
305 307 310 321 321 318 311 310 309 310 312 311 312 313 313 314 310 311 312 313 312 312 311 312 311 309 305 298 288 282 275 272 267 259 254 249 246 245 247 248 247 242 243
307 312 308 301 306 307 308 307 313 314 313 311 311 309 309 308 308 309 310 308 308 309 311 311 309 306 305 300 296 288 279 272 267 265 260 252 248 246 248 248 249 248 245
303 306 308 311 314 314 312 312 312 310 308 308 306 307 307 306 305 304 305 305 305 304 304 305 306 305 304 302 296 293 285 276 270 265 262 259 254 251 250 249 248 247 249
307 311 311 312 312 313 309 308 307 306 305 302 302 301 301 303 303 304 304 305 307 306 304 302 303 303 302 300 296 294 289 281 274 268 263 260 259 256 252 250 251 250 250
305 308 307 308 307 306 304 302 303 304 303 304 304 302 300 299 301 301 302 303 301 301 300 298 297 300 300 300 297 296 292 285 276 270 266 263 260 258 258 256 254 252 252
306 307 308 307 306 303 302 303 303 302 301 300 300 300 300 300 301 301 299 298 299 296 295 296 298 296 295 296 295 294 292 287 279 273 268 264 261 259 257 257 257 256 255
305 303 301 300 300 300 300 301 300 299 298 297 297 298 298 299 299 298 296 295 293 294 292 291 294 294 294 293 294 293 291 285 280 275 273 270 266 263 260 257 256 256 256
297 297 298 297 299 299 299 299 299 298 298 297 297 297 296 296 294 291 290 290 290 290 290 289 292 292 292 293 294 295 289 283 278 275 273 272 270 266 265 262 258 257 256
298 299 300 300 301 301 300 299 299 298 298 296 297 297 296 296 296 294 291 289 288 287 288 289 290 290 289 291 294 292 287 283 279 276 274 272 271 268 266 265 263 262 260
299 301 300 304 303 301 299 298 298 296 296 295 295 294 294 294 294 294 293 293 289 287 288 288 288 289 291 292 291 290 286 283 278 279 276 274 271 270 269 268 268 266 264
297 301 303 305 304 303 300 298 296 296 296 295 295 294 294 294 292 292 293 292 292 290 291 291 288 291 293 291 287 286 282 279 279 279 277 274 274 273 273 271 270 269 267
302 306 306 308 306 306 303 302 300 299 297 295 294 293 292 292 292 293 293 291 289 291 291 290 290 292 292 288 287 285 283 282 281 280 278 277 278 277 278 277 274 270 267
306 304 304 304 304 302 300 299 297 296 296 296 295 294 295 294 294 294 294 292 291 292 290 290 290 291 289 287 285 284 285 284 283 282 281 279 281 281 281 280 279 274 271
304 303 303 303 301 301 299 299 298 297 296 296 296 295 296 296 296 296 294 292 292 292 291 291 291 290 288 286 287 287 286 283 282 281 283 284 284 282 282 281 279 277 275